Погода Комсомольск-на-Амуре

Погода Комсомольск-на-Амуре : погода сейчас, прогноз погоды и архив. Всё, что Вы хотите узнать о погоде Комсомольск-на-Амуре!

Хотите узнать прогноз погоды Комсомольск-на-Амуре? Тогда Вам сюда: Погода Комсомольск-на-Амуре

Поиск расширенной информации на нашем сайте:

Другие новости

Новости СМИ2

Главная страница сайта

Новости сайта

03.07.2017

Напоминаем, что на нашем специализированном сайте Метеоцентр.Азия вы можете получить высокодетализированные автоматические прогнозы погоды по пунктам России, СНГ и мира в авиационном формате (включающие направление и скорость ветра, видимость, явления погоды, количество и форму облачности, нижнюю и верхнюю границу облачности).

Рекомендуем: Типографии московский печатный двор.

Погода Комсомольск-на-Амуре - сегодня

Время (UTC), дата Ветер
(°,м/с) 
Видим.   Явления Облачность Т
(°С)
Тd
(°С)
f(%) Тe
(°С)
Pmin
(гПа)
dP
(гПа)
Po
(мм)
O2
(г/м3)
Тmin Tmax R s Состояние
почвы
00 20.09.17 320 (СЗ) 5{11}  20000 м    9/1 600 м средняя, верхняя 
[Cu hum|Ac lent|Cc]
+14.9 +7.8 62 +14  1003.6  0.8  751  286           
03 20.09.17 330 (СЗ) 4{11}  20000 м    8/5 600 м средняя 
[Cu hum|Ac trans]
+18.6 +7.6 49 +19  1002.9  -0.6  750  282           
06 20.09.17 360 (С) 20000 м    9/3 600 м средняя 
[Sc|Ac trans]
+18.4 +7.6 49 +19  1002.5  -0.4  750  282           
09 20.09.17 тихо ()   20000 м    9/4 600 м средняя 
[Sc|Ac trans]
+15.8 +8.8 63 +16  1003.4  0.8  751  284    +19.2       
12 20.09.17 тихо ()   20000 м    8/5 600 м средняя 
[Sc|Ac trans]
+12.8 +11.1 89 +15  1003.9  0.5  751  287           
15 20.09.17 тихо ()   20000 м    3/3 600 м средняя 
[Sc|Ac trans]
+10.2 +9.3 94 +10  1004.5  0.5  752  290           
18 20.09.17 тихо ()   2000 м  дымка  3/3 600 м 
[Sc]
+8.1 +7.6 97 +8  1005  0.4  752  293           
21 20.09.17 тихо ()   10 км  в посл. час туман  1/0 средняя 
[Ac trans]
+6 +5.6 97 +6  1005.8  0.8  752  296  +5.5        влажная 
00 21.09.17 150 (ЮВ) 0500 м  туман  10/10 300 м 
[St]
+11.2 +10.8 97 +14  1006.7  0.8  753  290           
03 21.09.17 150 (ЮВ) 20000 м  {туман}  3/3 600 м верхняя 
[Cu hum|Ci fib]
+15.6 +12.6 82 +20  1006.9  0.2  753  285           
06 21.09.17 170 (Ю) 20000 м  {туман}  4/0 верхняя 
[Ci fib]
+17.5 +12.4 72 +22  1006.5  -0.4  753  283           
09 21.09.17 160 (Ю) 20000 м    8/0 верхняя 
[Ci fib]
+15.9 +12.8 82 +21  1007.2  0.7  754  284    +17.6       
12 21.09.17 210 (ЮЗ) 20000 м    ясно 
+13 +12.1 94 +18  1008.5  1.3  755  288           
15 21.09.17 190 (Ю) 20000 м    3/0 верхняя 
[Ci fib]
+11 +10.4 96 +13  1009.9  1.4  756  291           
18 21.09.17 тихо ()   20000 м    ясно 
+7.8 +7.4 97 +8  1011.3  1.3  757  295           
21 21.09.17 010 (С) 20000 м    3/0 средняя, верхняя 
[Ac trans|Cc]
+7.3 +6.8 97 +8  1012.9  1.6  758  296  +7.3        влажная 
00 22.09.17 тихо ()   10 км  в посл. час туман  5/5 300 м 
[St]
+13.8 +11 83 +16  1013.9  1.1  759  289  +7.2         
03 22.09.17 160 (Ю) 20000 м    ясно 
+18.3 +10.7 61 +21  1013  -0.9  758  284           
06 22.09.17 170 (Ю) 20000 м    ясно 
+21.6 +10.9 51 +24  1011.8  -1.1  757  281           
09 22.09.17 150 (ЮВ) 20000 м    ясно 
+17.3 +12.2 72 +22  1011.4  -0.4  757  284    +21.7       
12 22.09.17 тихо ()   20000 м    ясно 
+11.4 +10.7 95 +13  1012  0.6  757  291           
15 22.09.17 тихо ()   20000 м    ясно 
+9.1 +8.7 97 +9  1011.6  0.6  757  294           
18 22.09.17 020 (С) 20000 м    8/0 верхняя 
[Ci fib]
+8.1 +7.7 97 +9  1010.8  -0.7  756  295           
21 22.09.17 350 (С) 0200 м  туман  ?/?  
+9.4 +9 97 +10  1010.8  756  293  +7.4        сухая 
00 23.09.17 150 (ЮВ) 0500 м  туман  10/8 300 м верхняя 
[St|Ci fib]
+11.7 +11.3 97 +16  1010.7  0.1  756  290           
Время (UTC), дата Ветер
(°,м/с) 
Видим.   Явления Облачность Т
(°С)
Тd
(°С)
f(%) Тe
(°С)
Pmin
(гПа)
dP
(гПа)
Po
(мм)
O2
(г/м3)
Тmin Tmax R s Состояние
почвы

Для получения пояснительной информации подведите курсор к названию столбца.

ПОГОДА Комсомольск-на-Амуре - архив

Всё, что Вы хотите узнать о погоде Комсомольск-на-Амуре - удобно и подробно!

Выберите нужную дату (начиная с 1 января 2015* года) и нажмите кнопку "Найти".
Будут отображены архивные сводки погоды по пункту Комсомольск-на-Амуре, начиная с указанной даты.


Отображать данные в формате CSV (для использования в таблицах Excel)


Внимание! Наш архив погоды предназначен исключительно для личного некоммерческого использования в познавательных целях. Если Вам необходимы официальные справки о состоянии погоды (для производственных, юридических, коммерческих и т.п. целей), обращайтесь в органы Росгидромета.

*Примечание: данная дата относится к архиву по метеостанциям СССР (Россия, СНГ, Балтия).
Архив по метеостанциям Зарубежной Европы и Азии (кроме Китая) хранится 10 дней, по другим регионам земного шара (Китай, Африка, Америка, Австралия, Океания) - 1 день.

Комсомольск-на-Амуре - район местоположения метеостанции


Название, широта, долгота, высота метеостанции:
Комсомольск-на-Амуре 50.6°ш. 137°д. 19 м над ур. моря [Российская Федерация]

Дополнительная информация

В oтличие oт бoльшинства пoгoдных сайтoв мы публикуем пoдрoбную метеoинфoрмацию в детальнoм прoфессиoнальнoм фoрмате.

Характеристики температуры и влажнoсти вoздуха измеряются на высoте 2 м в тени вдали oт зданий и деревьев.
Скoрoсть ветра измеряется на высoте 10 м (на урoвне рoста челoвека скoрoсть ветра ниже в 1.5-2 раза). Если метеoстанция нахoдится в гoрoде или в лесу, тo скoрoсть ветра занижена на 2-4 м/с пo сравнению с oткрытым местoм. Скoрoсть ветра над акватoриями крупных рек и oзёр, а также на вершинах хoлмoв на 2-5 м/с выше, чем в oбычных услoвиях.
Атмoсфернoе давление в разных тoчках местнoсти мoжет значительнo oтличаться oт давления на метеoстанции, в зависимoсти oт услoвий рельефа (при пoдъёме на 10 м давление пoнижается примернo на 1 мм рт.ст.).